www.pogodaiklimat.ru

Погода и климат >> Архив погоды >> Великобритания >> Lerwick


АРХИВ ПОГОДЫ в Lerwick

Время (UTC), дата Ветер
(напр.,м/с)
 
Видим.   Явления Облачность Т
(С)
Тd
(С)
f
(%)
Тe
(С)
Тes
(С)
Комфортность P
(гПа)
Po
(гПа)
Тmin
(С)
Tmax
(С)
R
(мм)
R24
(мм)
S
(см)
02 9.07 СЗ 5 45 км н/о +10.3 +6.6 78 +7 +7 тепло 1027.3 1017.2
01 9.07 З 5 50 км н/о +10.5 +6.0 74 +8 +8 тепло 1027.1 1017.0
03 9.07 СЗ 3 40 км н/о +10.1 +6.1 76 +8 +8 по сезону 1027.2 1017.1
04 9.07 З 6 50 км в посл. час дождь н/о +9.8 +7.7 87 +6 +6 тепло 1027.1 1017.0
05 9.07 СЗ 4 50 км н/о +10.7 +7.0 78 +8 +8 тепло 1026.9 1016.9
06 9.07 СЗ 4 30 км н/о +10.8 +8.4 85 +8 +8 по сезону 1027.2 1017.1 +9.7 0.0
08 9.07 З 7 8000 м в посл. час дождь 10/10 660 м
[Sc]
+10.2 +8.6 90 +7 +7 тепло 1027.6 1017.5
07 9.07 СЗ 6 50 км в посл. час дождь н/о +11.2 +6.7 74 +8 +8 по сезону 1027.3 1017.2
09 9.07 З 5 11 км в посл. час дождь 10/10 450 м
[Sc]
+11.2 +8.3 82 +8 +8 по сезону 1027.6 1017.5
10 9.07 С 5 45 км в посл. час дождь н/о +12.5 +7.9 74 +10 +10 тепло 1027.5 1017.5
11 9.07 СЗ 7 45 км 9/9 720 м
[Sc]
+12.2 +7.2 71 +9 +10 по сезону 1027.6 1017.6
12 9.07 СЗ 5 40 км {дождь} 9/6 720 м
[Sc Ac trans]
+13.2 +7.4 68 +11 +13 по сезону 1027.4 1017.4 0.0
14 9.07 СЗ 5 50 км 9/5 800 м
[Sc Ac trans]
+14.0 +8.3 68 +12 +14 тепло 1027.3 1017.4
13 9.07 СЗ 5 50 км 8/5 720 м
[Sc Ac trans]
+13.4 +8.1 70 +11 +14 тепло 1027.4 1017.4
15 9.07 СЗ 5 45 км н/о +13.8 +8.1 68 +12 +12 тепло 1027.4 1017.5
16 9.07 З 6 45 км 9/8 600 м
[Sc Ac trans]
+12.6 +8.0 74 +10 +11 тепло 1027.3 1017.3
17 9.07 СЗ 5 45 км 9/6 540 м
[Sc Ac trans]
+12.6 +8.6 77 +11 +11 тепло 1027.2 1017.2
18 9.07 СЗ 4 45 км 9/5 480 м
[Sc Ac trans]
+12.6 +8.5 76 +11 +11 по сезону 1027.1 1017.1 +14.6 0.0
20 9.07 СЗ 2 30 км н/о +12.3 +9.2 81 +11 +11 тепло 1027.3 1017.2
19 9.07 З 3 40 км 8/5 400 м
[Sc Ac trans]
+12.3 +9.3 82 +11 +11 тепло 1027.2 1017.2
21 9.07 З 3 30 км н/о +11.7 +10.1 90 +10 +10 по сезону 1027.4 1017.3
22 9.07 З 1 24 км н/о +11.3 +10.1 92 +11 +11 тепло 1027.5 1017.4
23 9.07 З 3 20 км н/о +11.2 +10.2 94 +9 +9 тепло 1027.1 1017.1
00 10.07 ЮЗ 4 16 км н/о +11.1 +10.3 95 +9 +9 по сезону 1027.1 1017.0
02 10.07 ЮЗ 2 9000 м дымка н/о +11.4 +10.9 97 +10 +10 тепло 1027.0 1016.9
01 10.07 ЮЗ 2 11 км н/о +11.3 +10.7 96 +10 +10 тепло 1027.0 1017.0
03 10.07 ЮЗ 2 5000 м дымка н/о +11.5 +11.1 97 +10 +10 по сезону 1026.6 1016.6
04 10.07 З 2 800 м туман н/о +11.7 +11.5 99 +10 +10 тепло 1026.4 1016.3
05 10.07 ЮЗ 1 8000 м в посл. час туман н/о +11.9 +11.7 99 +12 +12 тепло 1026.4 1016.4
06 10.07 Ю 1 7000 м дымка н/о +11.9 +11.6 98 +12 +12 тепло 1026.6 1016.5 +11.1
08 10.07 Ю 1 30 км местами туман поземный 10/10 <50 м
[St]
+12.1 +11.8 98 +12 +12 тепло 1026.6 1016.6
07 10.07 Ю 2 7000 м дымка н/о +12.0 +11.8 99 +11 +11 тепло 1026.7 1016.7
09 10.07 Ю 2 2000 м дымка 10/10 <50 м
[St]
+12.5 +11.9 96 +11 +11 по сезону 1026.6 1016.6
10 10.07 ЮВ 3 29 км местами туман поземный 10/10 <50 м
[St]
+13.0 +11.9 93 +12 +12 тепло 1026.5 1016.5
11 10.07 ЮВ 4 40 км местами туман поземный 9/9 <50 м
[Sc]
+14.9 +12.1 83 +14 +15 тепло 1026.4 1016.5
12 10.07 Ю 4 35 км 9/9 <50 м
[St]
+15.7 +12.3 80 +15 +16 тепло 1026.3 1016.4
14 10.07 Ю 4 19 км 9/9 150 м
[St]
+14.4 +12.6 89 +13 +14 тепло 1026.3 1016.4
13 10.07 Ю 3 28 км 9/9 <50 м
[St]
+15.7 +12.4 81 +15 +16 тепло 1026.1 1016.2
15 10.07 Ю 3 19 км 9/9 <50 м
[St]
+13.6 +11.9 89 +12 +13 по сезону 1026.3 1016.3
16 10.07 Ю 3 18 км 10/10 240 м
[St]
+13.1 +11.5 90 +12 +12 тепло 1026.1 1016.1
17 10.07 Ю 3 13 км 10/10 240 м
[St]
+13.2 +11.6 90 +12 +12 тепло 1026.0 1016.0
18 10.07 Ю 2 5000 м слабая морось 10/10 180 м
[Frnb]
+12.6 +11.6 94 +12 +12 тепло 1026.1 1016.1 +16.0 0.0
20 10.07 Ю 1 14 км н/о +12.3 +11.5 95 +12 +12 тепло 1025.8 1015.8
19 10.07 Ю 2 8000 м слабая морось 10/10 90 м
[Frnb]
+12.5 +11.9 96 +12 +12 тепло 1026.0 1016.0
21 10.07 ЮВ 1 25 км н/о +12.3 +11.1 92 +12 +12 тепло 1025.9 1015.9
22 10.07 Ю 1 20 км н/о +12.1 +11.0 93 +12 +12 тепло 1026.0 1016.0
23 10.07 ЮЗ 1 17 км н/о +12.0 +11.1 94 +12 +12 тепло 1025.8 1015.8
00 11.07 ЮЗ 1 17 км н/о +12.0 +10.9 93 +12 +12 тепло 1025.5 1015.5 0.0
02 11.07 штиль 0 19 км н/о +11.7 +10.9 95 +11 +11 тепло 1025.0 1015.0
01 11.07 штиль 0 21 км н/о +11.9 +10.9 94 +11 +11 тепло 1025.2 1015.2
03 11.07 ЮЗ 1 23 км н/о +11.6 +10.3 92 +11 +11 тепло 1024.8 1014.8
04 11.07 СЗ 1 30 км н/о +12.0 +9.4 84 +13 +13 тепло 1024.6 1014.6
05 11.07 С 1 50 км н/о +12.3 +9.6 84 +12 +12 тепло 1024.5 1014.5
06 11.07 С 2 50 км н/о +12.9 +9.8 81 +12 +12 тепло 1024.2 1014.3 +11.5 0.0
08 11.07 СВ 2 35 км 6/5 400 м
[St Ci sp]
+14.0 +10.3 78 +14 +17 тепло 1024.1 1014.2
07 11.07 СЗ 2 45 км н/о +13.6 +10.2 80 +13 +13 тепло 1024.3 1014.3
09 11.07 Ю 3 45 км 8/8 420 м
[St]
+13.5 +10.6 83 +13 +14 тепло 1024.2 1014.3
10 11.07 Ю 2 30 км 9/9 360 м
[St]
+13.8 +11.2 84 +13 +14 тепло 1024.1 1014.1
11 11.07 Ю 2 45 км 9/9 300 м
[St]
+13.0 +11.0 88 +12 +13 тепло 1024.1 1014.1
12 11.07 ЮВ 2 30 км 9/9 330 м
[St]
+13.3 +11.2 87 +13 +14 тепло 1024.0 1014.0
14 11.07 Ю 3 45 км 9/9 270 м
[St]
+12.9 +11.0 88 +11 +12 тепло 1023.7 1013.7
13 11.07 Ю 3 40 км 9/9 240 м
[St]
+13.3 +10.9 85 +12 +13 тепло 1023.7 1013.7
15 11.07 З 4 30 км н/о +13.2 +11.5 89 +11 +11 по сезону 1023.6 1013.6
16 11.07 З 5 28 км 9/9 210 м
[St]
+13.4 +11.6 89 +11 +12 тепло 1023.3 1013.4
17 11.07 З 4 40 км 9/9 270 м
[Sc]
+13.1 +11.3 89 +11 +12 тепло 1023.1 1013.2
18 11.07 З 4 50 км 10/10 270 м
[St]
+13.5 +11.3 87 +12 +12 тепло 1023.1 1013.1 +14.5
20 11.07 З 3 25 км н/о +13.0 +11.9 93 +12 +12 тепло 1023.1 1013.1
19 11.07 З 4 12 км дымка н/о +12.2 +11.6 96 +10 +10 тепло 1023.1 1013.1
21 11.07 СЗ 2 23 км н/о +12.7 +11.7 94 +12 +12 тепло 1023.3 1013.3
22 11.07 СЗ 2 18 км н/о +12.5 +11.7 95 +11 +11 тепло 1023.3 1013.3
23 11.07 СЗ 2 3800 м дымка н/о +12.4 +11.7 95 +12 +12 тепло 1023.2 1013.2
00 12.07 СЗ 2 3300 м в посл. час дождь н/о +12.2 +11.8 97 +11 +11 тепло 1023.2 1013.2 0.0
02 12.07 СЗ 3 600 м туман н/о +12.2 +12.0 99 +11 +11 тепло 1022.7 1012.7
01 12.07 СЗ 2 5000 м в посл. час дождь н/о +12.2 +11.9 98 +11 +11 тепло 1023.0 1013.0
03 12.07 СЗ 3 20 км слаб. ливневой дождь н/о +12.2 +12.0 99 +10 +10 по сезону 1022.5 1012.5
04 12.07 СЗ 4 500 м туман н/о +11.9 +11.8 99 +10 +10 тепло 1022.5 1012.5
05 12.07 С 4 5000 м в посл. час дождь н/о +11.7 +11.5 99 +9 +9 тепло 1022.5 1012.5
06 12.07 С 4 21 км н/о +11.8 +11.4 97 +9 +9 по сезону 1022.5 1012.6 +11.6 0.2
08 12.07 С 5 5000 м слабая морось 10/10 90 м
[Frnb]
+12.1 +11.5 96 +9 +9 тепло 1022.9 1013.0
07 12.07 С 4 28 км в посл. час дождь н/о +12.2 +11.5 95 +10 +10 тепло 1022.8 1012.8
09 12.07 С 5 40 км в посл. час морось 10/10 90 м
[St]
+12.2 +11.5 95 +10 +10 по сезону 1022.9 1012.9
10 12.07 С 5 50 км 10/10 180 м
[St]
+12.8 +11.2 90 +11 +11 тепло 1023.0 1013.0
11 12.07 СЗ 5 45 км 10/10 360 м
[Sc]
+13.6 +10.6 82 +12 +12 тепло 1023.0 1013.1
12 12.07 СЗ 4 8000 м слабая морось 9/9 360 м
[Frnb]
+13.8 +10.9 83 +12 +13 по сезону 1023.0 1013.1 0.2
14 12.07 СЗ 4 30 км н/о +13.9 +10.6 80 +12 +12 тепло 1022.8 1012.9
13 12.07 СЗ 4 5000 м слабая морось 10/10 330 м
[Frnb]
+13.4 +10.9 85 +12 +12 тепло 1023.0 1013.1
15 12.07 СЗ 4 22 км в посл. час морось 10/10 480 м
[Sc]
+14.3 +11.0 81 +13 +13 тепло 1022.8 1012.9
16 12.07 СЗ 4 11 км в посл. час морось 10/10 540 м
[Sc]
+13.9 +10.9 82 +12 +12 тепло 1022.6 1012.6
17 12.07 СЗ 4 11 км в посл. час морось 10/10 300 м
[St]
+13.3 +10.7 84 +12 +12 тепло 1022.5 1012.6
18 12.07 СЗ 4 45 км {морось} 9/9 90 м
[Sc]
+13.7 +10.3 80 +12 +12 тепло 1022.6 1012.7 +14.4 0.2
20 12.07 СЗ 3 50 км н/о +12.7 +9.1 79 +11 +11 тепло 1022.9 1012.9
19 12.07 СЗ 3 45 км 9/9 630 м
[Sc]
+13.4 +10.0 80 +12 +12 тепло 1022.7 1012.8
21 12.07 З 5 50 км н/о +11.8 +9.5 86 +9 +9 по сезону 1023.0 1013.0
22 12.07 СЗ 4 45 км н/о +11.2 +9.4 89 +9 +9 тепло 1022.9 1012.9
23 12.07 С 3 50 км н/о +11.3 +8.6 83 +10 +10 тепло 1022.7 1012.7
00 13.07 СЗ 2 50 км н/о +11.2 +8.9 86 +10 +10 по сезону 1022.7 1012.7
02 13.07 З 4 35 км н/о +10.8 +9.6 92 +8 +8 тепло 1022.3 1012.2
01 13.07 З 3 45 км н/о +10.7 +9.2 90 +9 +9 тепло 1022.4 1012.3
03 13.07 З 4 40 км н/о +10.9 +9.4 90 +8 +8 по сезону 1022.1 1012.1
04 13.07 З 3 40 км н/о +11.0 +9.5 90 +9 +9 тепло 1021.8 1011.8
05 13.07 З 4 35 км н/о +10.9 +9.9 94 +9 +9 тепло 1021.7 1011.7
06 13.07 З 2 30 км н/о +11.6 +10.4 92 +10 +10 по сезону 1021.5 1011.5 +10.7
08 13.07 З 4 9000 м слабая морось 10/10 300 м
[Sc]
+12.8 +10.3 85 +11 +11 тепло 1021.5 1011.6
07 13.07 З 4 40 км н/о +12.3 +10.6 89 +10 +10 тепло 1021.6 1011.6
09 13.07 З 4 35 км в посл. час морось 10/10 300 м
[St]
+12.8 +9.7 81 +11 +11 по сезону 1021.4 1011.5
10 13.07 ЮЗ 4 40 км 10/10 300 м
[Sc]
+13.9 +10.6 80 +12 +12 тепло 1021.2 1011.3
11 13.07 ЮЗ 5 45 км 10/10 300 м
[St]
+14.2 +11.0 81 +12 +12 тепло 1021.1 1011.2
12 13.07 З 5 30 км {морось} 10/10 700 м
[Sc]
+14.3 +10.8 79 +13 +13 тепло 1020.9 1011.0 0.0
14 13.07 Ю 4 30 км 9/9 600 м
[Sc]
+14.3 +10.3 77 +13 +14 тепло 1020.9 1011.0
13 13.07 З 6 45 км 10/10 930 м
[Sc]
+14.5 +10.4 76 +13 +13 тепло 1020.7 1010.8
15 13.07 З 7 45 км 9/9 840 м
[Sc]
+15.4 +9.4 67 +14 +14 тепло 1020.3 1010.4
16 13.07 ЮЗ 6 50 км н/о +15.6 +9.1 65 +14 +14 тепло 1020.1 1010.2
17 13.07 ЮЗ 6 40 км 8/0
[Ac trans]
+14.8 +8.4 65 +13 +14 тепло 1019.7 1009.8
18 13.07 Ю 5 30 км 8/0
[Ac trans]
+13.6 +10.2 80 +12 +12 тепло 1019.3 1009.4 +16.3 0.0
20 13.07 Ю 4 50 км н/о +12.9 +9.8 81 +11 +11 тепло 1019.1 1009.2
19 13.07 Ю 4 50 км 9/0
[Ac trans]
+13.6 +9.9 78 +12 +13 тепло 1019.2 1009.3
21 13.07 Ю 3 45 км н/о +12.7 +9.7 82 +11 +11 тепло 1019.1 1009.2
22 13.07 Ю 5 45 км н/о +12.6 +11.0 90 +10 +10 тепло 1018.8 1008.8
23 13.07 Ю 5 27 км н/о +12.5 +11.5 94 +10 +10 тепло 1018.4 1008.5
00 14.07 Ю 5 24 км н/о +12.5 +11.8 95 +10 +10 по сезону 1018.0 1008.1
02 14.07 Ю 4 11 км н/о +12.5 +12.1 97 +11 +11 тепло 1017.1 1007.2
01 14.07 Ю 5 29 км н/о +12.7 +12.0 96 +10 +10 тепло 1017.7 1007.8
03 14.07 Ю 3 7000 м дымка н/о +12.4 +12.2 99 +11 +11 тепло 1016.3 1006.4
04 14.07 Ю 4 6000 м дымка н/о +12.8 +12.6 99 +11 +11 тепло 1015.8 1005.9
05 14.07 Ю 5 2400 м дымка н/о +13.0 +12.8 99 +11 +11 тепло 1015.2 1005.3
06 14.07 Ю 6 100 м слаб. морось н/о +12.9 +12.8 99 +10 +10 по сезону 1014.9 1005.0 +12.3 0.0
08 14.07 Ю 6 100 м слабый дождь {туман} ?/? +12.7 +12.7 100 +10 +10 тепло 1014.3 1004.4
07 14.07 Ю 6 100 м слаб. дождь н/о +12.6 +12.6 100 +10 +10 тепло 1014.3 1004.5
09 14.07 Ю 5 2300 м в посл. час дождь {туман} 9/1 30 м
[St As op]
+13.2 +13.2 100 +11 +12 по сезону 1014.1 1004.2
10 14.07 ЮЗ 7 45 км 9/1 <50 м
[St Ac trans]
+14.6 +12.5 87 +13 +14 тепло 1013.6 1003.7
11 14.07 Ю 5 18 км слабый дождь 9/1 900 м
[Sc Ac As]
+14.5 +12.6 88 +13 +15 тепло 1013.3 1003.5
12 14.07 Ю 8 30 км в посл. час дождь 10/8 1050 м
[Sc Ac trans]
+14.4 +12.1 86 +12 +12 по сезону 1012.9 1003.1 0.0
14 14.07 ЮЗ 9 50 км в посл. час дождь 10/10 900 м
[Sc]
+15.6 +10.8 73 +14 +14 тепло 1012.8 1003.0
13 14.07 Ю 5 20 км слабый дождь 9/9 960 м
[Sc]
+13.7 +12.4 92 +12 +12 тепло 1012.9 1003.0
15 14.07 ЮЗ 9 5000 м слабый дождь 10/10 630 м
[Sc]
+14.2 +13.2 94 +12 +12 по сезону 1012.7 1002.9
16 14.07 Ю 6 13 км в посл. час дождь 10/10 90 м
[St]
+13.7 +13.4 98 +11 +11 тепло 1012.7 1002.8
17 14.07 Ю 8
{13}
4300 м в посл. час дождь 10/10 <50 м
[St]
+14.2 +13.8 97 +12 +12 тепло 1012.4 1002.6
18 14.07 Ю 7 4900 м в посл. час дождь 10/10 <50 м
[St]
+13.7 +13.5 99 +11 +11 по сезону 1012.2 1002.4 +17.7 1
20 14.07 Ю 7 6000 м слаб. ливневой дождь н/о +13.2 +12.9 98 +11 +11 тепло 1012.0 1002.1
19 14.07 Ю 7 8000 м дымка н/о +13.4 +13.2 99 +11 +11 тепло 1012.0 1002.2
21 14.07 Ю 6 5000 м слаб. морось н/о +13.1 +12.9 99 +11 +11 по сезону 1011.9 1002.1
22 14.07 Ю 5 2700 м слаб. дождь н/о +13.1 +13.0 99 +11 +11 тепло 1012.1 1002.2
23 14.07 Ю 5 100 м морось н/о +13.7 +13.5 99 +12 +12 тепло 1011.9 1002.1
00 15.07 Ю 5 100 м слаб. морось н/о +13.1 +13.0 99 +11 +11 тепло 1011.9 1002.0 1
02 15.07 Ю 5 100 м туман н/о +12.7 +12.7 100 +10 +10 тепло 1011.5 1001.7
01 15.07 Ю 5 200 м туман н/о +13.3 +13.2 99 +11 +11 тепло 1011.6 1001.7
03 15.07 Ю 4 600 м туман н/о +13.5 +13.4 99 +12 +12 тепло 1011.3 1001.5
04 15.07 Ю 5 1100 м слаб. ливневой дождь н/о +13.3 +13.3 100 +11 +11 тепло 1010.9 1001.0
05 15.07 Ю 3 200 м морось с дождем н/о +12.9 +12.9 100 +11 +11 тепло 1011.1 1001.2
06 15.07 Ю 2 200 м морось н/о +13.4 +13.3 99 +13 +13 тепло 1011.1 1001.3 +12.5 3
08 15.07 Ю 3 200 м слаб. ливневой дождь н/о +13.7 +13.7 100 +12 +12 тепло 1011.5 1001.7
07 15.07 Ю 3 8000 м слаб. ливневой дождь н/о +14.4 +14.3 99 +13 +13 тепло 1011.4 1001.6
09 15.07 Ю 4 11 км в посл. час морось 10/10 30 м
[St]
+14.6 +14.4 99 +13 +13 тепло 1011.6 1001.8
10 15.07 Ю 3 9000 м 9/9 270 м
[St]
+15.2 +14.8 97 +14 +15 тепло 1011.8 1002.0
11 15.07 ЮЗ 3 29 км 9/9 180 м
[St]
+16.8 +15.8 94 +17 +18 тепло 1011.8 1002.1
12 15.07 Ю 2 25 км {морось} 9/3 300 м
[Sc Ac trans]
+19.1 +16.4 84 +21 +26 комфорт 1011.5 1001.9 0.4
14 15.07 Ю 3 27 км 9/1 240 м
[St Ac trans]
+17.0 +14.8 87 +17 +21 тепло 1011.8 1002.1
13 15.07 Ю 4 14 км 9/1 300 м
[St Ac As]
+16.3 +14.8 91 +16 +19 тепло 1011.8 1002.0
15 15.07 Ю 4 23 км 9/1 900 м
[Sc Ac trans]
+16.6 +14.5 87 +16 +19 тепло 1011.7 1002.0
16 15.07 ЮВ 2 18 км 9/9 1500 м
[Sc Ac trans]
+16.9 +15.0 89 +17 +18 тепло 1011.7 1001.9
17 15.07 Ю 1 16 км 9/9 1470 м
[Sc Ac trans]
+16.8 +14.9 89 +18 +18 тепло 1011.3 1001.6
18 15.07 Ю 1 22 км 9/8 1500 м
[Sc Ac trans]
+17.5 +15.1 86 +19 +19 тепло 1011.1 1001.5 +19.3 0.4
20 15.07 Ю 2 100 м туман н/о +14.4 +14.3 99 +14 +14 тепло 1010.9 1001.1
19 15.07 Ю 3 6000 м дымка 9/9 30 м
[Sc]
+15.1 +14.7 97 +14 +15 тепло 1011.0 1001.2
21 15.07 ЮВ 2 100 м туман н/о +14.0 +13.9 99 +14 +14 тепло 1010.6 1000.8
22 15.07 Ю 2 200 м туман н/о +14.2 +14.1 99 +14 +14 тепло 1010.7 1000.9
23 15.07 ЮВ 3 100 м туман н/о +13.8 +13.7 99 +13 +13 тепло 1010.4 1000.6
00 16.07 ЮВ 4 100 м туман н/о +14.0 +13.9 99 +13 +13 тепло 1009.9 1000.1
01 16.07 Ю 5 100 м туман н/о +13.4 +13.3 99 +11 +11 тепло 1009.7 999.9

 

Местоположение метеостанции Lerwick (Великобритания): широта 60.13 долгота -1.18 высота над уровнем моря 84 м.

В архиве по умолчанию представлена погода в Lerwick за последнюю неделю. Архивные данные за месяц целиком и за предыдущие месяцы, начиная с января 2011 года, Вы можете получить, выбрав интересующий диапазон дат из раскрывающегося списка и нажав кнопку "Ввод!".


*Определитесь, кто Вы:
робот инопланетянин человек

Внимание! Время в таблицах - всемирное. Для получения местного времени необходимо прибавить поправку, которая в Lerwick равна 0 ч.

Смотрите также архив погоды в соседних городах и на ближайших метеорологических станциях:

Погода в Foula (Великобритания) (49 км)
Погода в Baltasound (Великобритания) (71 км)
Погода в Fair Isle (Великобритания) (71 км)
Погода в Kirkwall (Великобритания) (163 км)
Погода в Sule Skerry (Великобритания) (216 км)
Погода в Wick (Великобритания) (216 км)
Погода в Gullfaks C (Норвегия) (222 км)
Погода в Altnaharra (Великобритания) (277 км)
Погода в Lossiemouth (Великобритания) (295 км)
Погода в Tain Range (Великобритания) (303 км)

Пояснения к столбцам:

Ветер - указаны скорость ветра в м/с - средняя за 10 мин, порывы в срок и между сроками (в фигурных скобках) и направление, откуда дует ветер: С - северный, СВ - северо-восточный, В - восточный, ЮВ - юго-восточный, Ю - южный, ЮЗ - юго-западный, З - западный, СЗ - северо-западный.
Видимость - горизонтальная дальность видимости в метрах или километрах. При видимости от 1 до 10 км при отсутствии осадков обычно наблюдается дымка, при ухудшении видимости до 1 км и менее - туман. В сухую погоду видимость может ухудшаться дымом, пылью или мглою.
Явления - указаны атмосферные явления, наблюдавшиеся в срок или в последний час перед сроком; фигурными скобками обозначены явления, наблюдавшиеся между сроками (за 1-3 часа до срока); квадратными скобками обозначены град или гололедные отложения с указанием их диаметра в мм.
Облачность - указаны через наклонную черту общая и нижняя облачность в баллах и высота нижней границы облаков в метрах; квадратными скобками обозначены формы облаков: Ci - перистые, Cs - перисто-слоистые, Cc - перисто-кучевые, Ac - высококучевые, As - высокослоистые, Sc - слоисто-кучевые, Ns - слоисто-дождевые, Cu - кучевые, Cb - кучево-дождевые. Подробнее классификацию облаков см. в Атласе облаков (PDF).
T - Температура воздуха - температура, измеренная на высоте 2 м над землей.
Td - Температура точки росы - температура, при понижении до которой содержащийся в воздухе водяной пар достигнет насыщения.
f - Относительная влажность воздуха - влажноcть воздуха, измеренная на высоте 2 м над землей.
Te - Эффективная температура - температура, которую ощущает одетый по сезону человек в тени. Характеристика душности погоды. При расчете учитывается влияние влажности воздуха и скорости ветра на теплоощущения человека.
Tes - Эффективная температура на солнце - температура, которую ощущает человек, с поправкой на солнечный нагрев. Характеристика знойности погоды. Зависит от высоты солнца над горизонтом, облачности и скорости ветра. Ночью, в пасмурную погоду, а также при ветре 12 м/с и более поправка равна нулю.
P - Атмосферное давление - приведенное к уровню моря атмосферное давление.
Po - Атмосферное давление - измеренное на уровне метеостанции атмосферное давление.
Tmin - Минимальная температура - минимум температуры воздуха на высоте 2 м над землей.
Tmax - Максимальная температура - максимум температуры воздуха на высоте 2 м над землей.
R - Количество осадков - Количество выпавших осадков за период времени, мм. При наведении курсора мыши на число - период времени, за который выпало указанное количество осадков.
R24 - Количество осадков - Количество выпавших осадков за 24 часа, мм.
S - Снежный покров - Высота снежного покрова, см. При наведении курсора мыши на число - состояние снежного покрова и степень покрытия местности в баллах.